Weather History for Grand Island, NE

Change the Weather History Date:

Monday, March 18, 2013

  Actual Average Record
Temperature  
Mean Temperature 36 °F 40 °F  
Max Temperature 43 °F 52 °F 80 °F (2012)
Min Temperature 28 °F 28 °F -9 °F (1923)
Degree Days  
Heating Degree Days 29 25  
Month to date heating degree days 522 506  
Since 1 July heating degree days 4991 5267  
Cooling Degree Days 0 0  
Month to date cooling degree days 0 0  
Year to date cooling degree days 0 0  
Moisture  
Dew Point 22 °F    
Average Humidity 64    
Maximum Humidity 100    
Minimum Humidity 28    
Precipitation  
Precipitation T in 0.06 in 0.91 in (1984)
Month to date precipitation 0.84 0.91  
Year to date precipitation 1.97 2.12  
Snow  
Snow 0.00 in 0.20 in 9.30 in (1984)
Month to date snowfall 3.5 3.4  
Since 1 July snowfall 24.9 25.5  
Snow Depth 0.00 in    
Sea Level Pressure  
Sea Level Pressure 29.94 in    
Wind  
Wind Speed 14 mph (NW)    
Max Wind Speed 31 mph    
Max Gust Speed 41 mph    
Visibility 9 miles    
Events Rain    
T = Trace of Precipitation, MM = Missing Value Source: NWS Daily Summary

Daily Weather History Graph

Daily Weather History Graph

Search for Another Location

Airport:

Trip Planner

Search our weather history database for the weather conditions in past years. The results will help you decide how hot, cold, wet, or windy it might be!

Date:

Astronomy

Mar. 18, 2013 Rise Set
Actual Time 7:39 AM CDT 7:43 PM CDT
Civil Twilight 7:12 AM CDT 8:10 PM CDT
Nautical Twilight 6:40 AM CDT 8:43 PM CDT
Astronomical Twilight 6:07 AM CDT 9:15 PM CDT
Moon 11:37 AM CDT (3/18) 1:46 AM CDT (3/18)
Length of Visible Light 12h 58m
Length of Day
12h 04m
Waxing Crescent, 41% of the Moon is Illuminated
Mar 18
Waxing Crescent
Mar 19
First Quarter
Mar 27
Full
Apr 2
Last Quarter
Apr 10
New

Hourly Weather History & Observations

Time (CDT) Temp. Windchill Dew Point Humidity Pressure Visibility Wind Dir Wind Speed Gust Speed Precip Events Conditions
12:53 AM 34.0 °F 25.0 °F 33.1 °F 96% 29.78 in 5.0 mi SSW 12.7 mph - N/A   Overcast
1:15 AM 35.6 °F 26.2 °F 33.8 °F 93% 29.78 in 5.0 mi West 15.0 mph - N/A   Overcast
1:53 AM 34.0 °F 25.5 °F 33.1 °F 96% 29.83 in 5.0 mi WSW 11.5 mph - 0.00 in Rain Light Rain
2:24 AM 35.6 °F 27.5 °F 33.8 °F 93% 29.79 in 6.0 mi WSW 11.5 mph - 0.00 in   Overcast
2:53 AM 35.1 °F 26.4 °F 34.0 °F 96% 29.82 in 10.0 mi West 12.7 mph - 0.00 in   Mostly Cloudy
3:53 AM 35.1 °F 26.4 °F 30.0 °F 82% 29.83 in 10.0 mi WNW 12.7 mph - N/A   Clear
4:53 AM 34.0 °F 24.2 °F 28.0 °F 79% 29.83 in 10.0 mi NW 15.0 mph - N/A   Scattered Clouds
5:53 AM 33.1 °F 23.0 °F 25.0 °F 72% 29.86 in 10.0 mi NW 15.0 mph - N/A   Clear
6:53 AM 32.0 °F 21.6 °F 21.9 °F 66% 29.89 in 10.0 mi NW 15.0 mph - N/A   Clear
7:53 AM 28.0 °F 22.8 °F 23.0 °F 81% 29.91 in 10.0 mi NW 4.6 mph - N/A   Clear
8:53 AM 30.9 °F 21.2 °F 21.9 °F 69% 29.92 in 10.0 mi NW 12.7 mph - N/A   Clear
9:53 AM 32.0 °F 20.1 °F 21.0 °F 64% 29.95 in 10.0 mi NW 19.6 mph 25.3 mph N/A   Clear
10:53 AM 35.1 °F 26.4 °F 24.1 °F 64% 29.97 in 10.0 mi NW 12.7 mph - N/A   Clear
11:53 AM 37.0 °F 26.4 °F 24.1 °F 59% 29.98 in 10.0 mi NW 20.7 mph 29.9 mph N/A   Clear
12:53 PM 39.0 °F 28.5 °F 23.0 °F 53% 29.99 in 10.0 mi NW 23.0 mph 33.4 mph N/A   Clear
1:53 PM 41.0 °F 30.5 °F 19.9 °F 43% 29.99 in 10.0 mi WNW 26.5 mph 41.4 mph N/A   Partly Cloudy
2:53 PM 42.1 °F 31.3 °F 16.0 °F 35% 29.98 in 10.0 mi NW 29.9 mph 39.1 mph N/A   Clear
3:53 PM 42.1 °F 33.3 °F 14.0 °F 32% 29.98 in 10.0 mi NW 19.6 mph 35.7 mph N/A   Clear
4:53 PM 42.1 °F 32.3 °F 12.0 °F 29% 29.99 in 10.0 mi NW 24.2 mph 32.2 mph N/A   Clear
5:53 PM 42.1 °F 33.6 °F 12.0 °F 29% 30.00 in 10.0 mi NW 18.4 mph 31.1 mph N/A   Clear
6:53 PM 41.0 °F 32.8 °F 10.0 °F 28% 30.02 in 10.0 mi NNW 16.1 mph - N/A   Clear
7:53 PM 34.0 °F 28.0 °F 14.0 °F 44% 30.04 in 10.0 mi North 6.9 mph - N/A   Clear
8:53 PM 28.9 °F 25.2 °F 16.0 °F 58% 30.06 in 10.0 mi North 3.5 mph - N/A   Clear
9:53 PM 30.9 °F 25.2 °F 17.1 °F 57% 30.08 in 10.0 mi North 5.8 mph - N/A   Mostly Cloudy
10:53 PM 32.0 °F - 12.9 °F 45% 30.10 in 10.0 mi Calm Calm - N/A   Overcast
11:53 PM 32.0 °F 28.7 °F 17.1 °F 54% 30.10 in 10.0 mi South 3.5 mph - N/A   Overcast